DW7220 Weather Reports


Display with metric or nautical units.
time (UTC)temp
F
wind
direction
speed
MPH
gust
MPH
rain 1hr
in
rain 24hr
in
rain mn
in
humidity
%
barometer
mb
20191206131622 57 270 1.0 2.0 0.00 0.00 0.00 88 1021.7
20191206130136 56 277 0.0 2.0 0.00 0.00 0.00 90 1021.6
20191206124549 55 268 0.0 2.0 0.00 0.00 0.00 90 1021.5
20191206123145 54 243 0.0 2.0 0.00 0.00 0.00 90 1021.3
20191206121641 54 282 0.0 1.0 0.00 0.00 0.00 90 1021.2
20191206120054 54 282 0.0 2.0 0.00 0.00 0.00 90 1021.2
20191206114601 55 282 1.0 3.0 0.00 0.00 0.00 90 1021.2
20191206113102 55 281 0.0 2.0 0.00 0.00 0.00 90 1021.1
20191206111553 55 280 0.0 2.0 0.00 0.00 0.00 90 1021.0
20191206110043 55 280 0.0 2.0 0.00 0.00 0.00 90 1020.7
20191206104550 55 279 1.0 3.0 0.00 0.00 0.00 90 1020.6
20191206103105 55 276 1.0 3.0 0.00 0.00 0.00 89 1020.4
20191206101608 55 283 1.0 3.0 0.00 0.00 0.00 90 1020.4
20191206100108 55 293 1.0 5.0 0.00 0.00 0.00 90 1020.5
20191206094534 55 281 1.0 4.0 0.00 0.00 0.00 90 1020.4
20191206093052 55 291 2.0 4.0 0.00 0.00 0.00 90 1020.1
20191206091559 55 295 0.0 3.0 0.00 0.00 0.00 89 1020.1
20191206090101 55 302 2.0 5.0 0.00 0.00 0.00 89 1020.4
20191206084526 55 293 2.0 4.0 0.00 0.00 0.00 89 1020.3
20191206083048 55 273 2.0 5.0 0.00 0.00 0.00 90 1020.4
20191206081549 55 278 2.0 4.0 0.00 0.00 0.00 89 1020.4
20191206080032 55 253 1.0 4.0 0.00 0.00 0.00 88 1020.5
20191206074537 55 283 2.0 4.0 0.00 0.00 0.00 88 1020.4
20191206073027 55 276 2.0 4.0 0.00 0.00 0.00 87 1020.4
20191206071527 55 276 1.0 3.0 0.00 0.00 0.00 87 1020.5
20191206070054 56 279 1.0 3.0 0.00 0.00 0.00 86 1020.5
20191206064530 56 269 2.0 4.0 0.00 0.00 0.00 85 1020.7
20191206063023 56 281 1.0 3.0 0.00 0.00 0.00 84 1020.5
20191206061511 56 284 2.0 4.0 0.00 0.00 0.00 83 1020.7
20191206060012 56 253 2.0 5.0 0.00 0.00 0.00 83 1020.9
20191206054514 56 285 2.0 5.0 0.00 0.00 0.00 83 1021.0
20191206053008 56 282 2.0 5.0 0.00 0.00 0.00 83 1020.9
20191206051507 56 274 1.0 4.0 0.00 0.00 0.00 82 1020.9
20191206050008 56 277 1.0 4.0 0.00 0.00 0.00 82 1020.8
20191206044502 56 276 2.0 3.0 0.00 0.00 0.00 83 1021.0
20191206043210 56 283 1.0 4.0 0.00 0.00 0.00 84 1021.0
20191206041640 56 281 2.0 4.0 0.00 0.00 0.00 84 1021.0
20191206040222 56 273 1.0 4.0 0.00 0.00 0.00 84 1021.1
20191206034816 56 280 1.0 2.0 0.00 0.00 0.00 84 1021.1
20191206033113 56 277 1.0 3.0 0.00 0.00 0.00 83 1021.1
20191206031725 56 260 1.0 3.0 0.00 0.00 0.00 82 1021.2
20191206030218 56 278 1.0 4.0 0.00 0.00 0.00 82 1021.2
20191206024744 57 271 1.0 3.0 0.00 0.00 0.00 81 1021.3
20191206023234 57 280 1.0 4.0 0.00 0.00 0.00 81 1021.4
20191206021815 57 273 1.0 3.0 0.00 0.00 0.00 80 1021.3
20191206020249 57 276 1.0 4.0 0.00 0.00 0.00 80 1021.1
20191206014709 57 284 2.0 4.0 0.00 0.00 0.00 79 1021.1
20191206013130 57 291 1.0 3.0 0.00 0.00 0.00 78 1021.1
20191206011706 57 302 2.0 4.0 0.00 0.00 0.00 76 1021.0
20191206010131 57 264 1.0 3.0 0.00 0.00 0.00 75 1020.9
20191206004626 57 279 1.0 3.0 0.00 0.00 0.00 76 1020.8
20191206003109 57 281 1.0 3.0 0.00 0.00 0.00 77 1020.6
20191206001635 57 276 1.0 2.0 0.00 0.00 0.00 78 1020.4
20191206000113 57 320 1.0 1.0 0.00 0.00 0.00 79 1020.1
20191205234626 57 320 0.0 1.0 0.00 0.00 0.00 78 1019.9
20191205233203 58 322 0.0 0.0 0.00 0.00 0.00 78 1019.8
20191205231736 58 322 0.0 0.0 0.00 0.00 0.00 76 1019.5
20191205230239 59 322 0.0 0.0 0.00 0.00 0.00 74 1019.4
20191205224604 61 322 0.0 0.0 0.00 0.00 0.00 71 1019.3
20191205223113 63 322 0.0 0.0 0.00 0.00 0.00 66 1019.3
20191205221621 65 322 0.0 2.0 0.00 0.00 0.00 63 1019.1
20191205220121 65 335 0.0 4.0 0.00 0.00 0.00 62 1019.0
20191205214649 66 15 2.0 6.0 0.00 0.00 0.00 61 1019.0
20191205213141 66 359 1.0 6.0 0.00 0.00 0.00 61 1018.7
20191205211619 67 316 4.0 9.0 0.00 0.00 0.00 60 1018.8
20191205210105 67 359 5.0 8.0 0.00 0.00 0.00 58 1018.8
20191205204624 67 36 4.0 9.0 0.00 0.00 0.00 55 1018.6
20191205203059 67 271 1.0 7.0 0.00 0.00 0.00 57 1018.5
20191205201543 66 290 2.0 6.0 0.00 0.00 0.00 60 1018.2
20191205200107 66 335 2.0 7.0 0.00 0.00 0.00 59 1018.2
20191205194557 66 9 3.0 7.0 0.00 0.00 0.00 57 1018.1
20191205193128 66 1 4.0 6.0 0.00 0.00 0.00 52 1018.2
20191205191553 66 330 3.0 6.0 0.00 0.00 0.00 53 1018.2
20191205190142 65 316 2.0 3.0 0.00 0.00 0.00 57 1018.3
20191205184625 65 340 1.0 4.0 0.00 0.00 0.00 58 1018.4
20191205183109 65 9 2.0 6.0 0.00 0.00 0.00 55 1018.5
20191205181550 65 358 3.0 6.0 0.00 0.00 0.00 55 1018.7
20191205180107 65 16 1.0 5.0 0.00 0.00 0.00 53 1018.8
20191205174536 66 46 4.0 6.0 0.00 0.00 0.00 48 1018.7
20191205173052 66 39 2.0 6.0 0.00 0.00 0.00 52 1018.7
20191205171546 66 316 1.0 5.0 0.00 0.00 0.00 49 1018.9
20191205170040 66 278 2.0 7.0 0.00 0.00 0.00 50 1019.2
20191205164550 66 271 3.0 8.0 0.00 0.00 0.00 51 1019.4
20191205163058 65 294 2.0 9.0 0.00 0.00 0.00 53 1019.4
20191205161523 64 348 5.0 10.0 0.00 0.00 0.00 54 1019.4
20191205160100 64 281 6.0 10.0 0.00 0.00 0.00 54 1019.7
20191205154514 64 291 4.0 9.0 0.00 0.00 0.00 55 1020.0
20191205153017 63 287 3.0 9.0 0.00 0.00 0.00 57 1019.9
20191205151527 62 250 6.0 9.0 0.00 0.00 0.00 57 1019.9
20191205150011 61 271 1.0 6.0 0.00 0.00 0.00 66 1019.8
20191205144509 59 291 1.0 8.0 0.00 0.00 0.00 71 1019.5
20191205143236 58 270 3.0 6.0 0.00 0.00 0.00 75 1019.4
20191205141707 56 295 2.0 5.0 0.00 0.00 0.00 79 1019.5
20191205140128 55 303 2.0 7.0 0.00 0.00 0.00 86 1019.5
20191205134649 53 274 2.0 7.0 0.00 0.00 0.00 92 1019.5
20191205133119 50 279 2.0 4.0 0.00 0.00 0.00 96 1019.4